千帆星座-224(QIANFAN-224)

导读

QIANFAN-224(NORAD编号69853)是中国千帆低轨互联网星座的成员卫星,由上海垣信卫星科技运营、上海微小卫星工程中心研制。该卫星所属批次于2024-2025年间由长征系列运载火箭发射入轨,运行于高度约800公里的近地轨道,当前状态稳定在轨。 作为千帆星座组网星之一,它主要承担全球高速互联网接入服务,重点覆盖偏远地区、海洋及高山等地面网络难以触达的区域,可提供低延迟、高带宽的通信传输能力,助力缩小全球数字鸿沟,是中国商业卫星互联网建设的重要组成部分。

Basic Information
目录编号:
69853
目录名称:
QIANFAN-224
国际标识:
2026-155F
轨道中心:
EARTH
卫星名称:
千帆星座-224
卫星全名:
千帆星座-224(QIANFAN-224)
卫星状态:
在轨 (已飞行62 天)
发射日期:
2026-07-05 UTC
国别 :
中国 (CN)
星等 :
--
Orbit Information
数据来源 国际轨道数据
星历时间: 2026-09-05T05:23:33+0800
10小时前
查看轨道信息
半长轴: 7406.664km
偏心率: 0.0032681
轨道倾角: 89.004°
近地点辐角 57.657°
升交点赤经 55.287°
平近点角 302.775°
近地点: 1004.321km
远地点: 1052.733km
周期: 105.729分钟
每日圈数: 13.61974
Detailed Information
卫星平台:
224
覆盖范围:
全球
运营商:
上海垣信卫星科技有限公司
运营商所在国:
中国
使用方式:
暂无
Satellite Introduction
千帆星座,也被称为“G60星链”计划,是中国版“星链”的重要组成部分,旨在打造一个由1.4万多颗低轨宽频多媒体卫星构成的庞大星座。千帆星座计划由上海垣信卫星科技有限公司负责实施,于2023年启动建设。该项目是我国第二个低轨卫星大星座,旨在通过构建庞大的卫星网络,为全球用户提供高质量的通信和宽带互联网服务。
2D Orbit Map
3D Orbit Map
Orbit Altitude Analysis Chart
Orbit Inclination Analysis Chart
Orbit Comprehensive Analysis Chart
View Comprehensive Chart
Conjunction Data List
Event ID Objects TCA Miss Dist (km) Collision Risk Probability Collision Risk Index (CRI) Action
CDM_260905-064901-277506-985321
2026-09-05T
06:49:09+0000
2.966 km
极远距离
1.324752E-6 低风险 0.37
CDM_260903-085203-849406-985321
2026-09-03T
08:52:19+0000
2.888 km
极远距离
1.312081E-6 低风险 0.37